Tracking 19634 objects as of 23-May-2019
HD Live streaming from Space Station
objects crossing your sky now

IRIDIUM 91 DEB

Track IRIDIUM 91 DEB now!
10-day predictions


NORAD ID: 40327
Int'l Code: 2002-005K
Perigee: 705.9 km
Apogee: 719.5 km
Inclination: 86.4 °
Period: 98.9 minutes
Semi major axis: 7083 km
RCS: Unknown
Launch date: February 11, 2002
Source: United States (US)
Launch site: AIR FORCE WESTERN TEST RANGE (AFWTR)

Note: This is SATELLITE DEBRIS
aabbcc
Your satellite tracking list
Your tracking list is empty




NASA's NSSDC Master Catalog

Two Line Element Set (TLE):
1 40327U 02005K   19142.82433260  .00002572  00000-0  57768-3 0  9990
2 40327  86.3889 334.1467 0009633 344.0588  16.0315 14.56175502236677
Source of the keplerian elements: AFSPC